Regional Weather Roundup
Issued by NWS

Home | Current Version | Previous Version | Graphics & Text | Print | Product List | Glossary On
Versions: 1 2 3 4 5 6 7 8 9 10 11 12 13 14 15 16 17 18 19 20 21 22 23 24 25 26 27 28 29 30 31 32 33 34 35 36 37 38 39 40 41 42 43 44 45 46 47 48 49 50
000
ASUS44 KMEG 061410
RWRTN
TENNESSEE HOURLY STATE WEATHER ROUNDUP
NATIONAL WEATHER SERVICE MEMPHIS TN
800 AM CST FRI MAR 06 2015

TNZ002-004-019-021-049-052-054-088>092-061500-
WEST TENNESSEE

CITY           SKY/WX    TMP DP  RH WIND       PRES   REMARKS
MEMPHIS INTL   MOSUNNY   21  10  62 CALM      30.62R
NWS MEMPHIS      N/A     15 N/A N/A MISG        N/A
JACKSON        SUNNY     12   7  80 CALM      30.60R
DYERSBURG      MOSUNNY   10  -2  56 CALM      30.65R
UNION CITY     SUNNY      9   7  92 CALM      30.61R
PARIS            N/A     10   3  72 CALM      30.58R
LEXINGTON      SUNNY     12   5  73 E3        30.57S
SAVANNAH       SUNNY     18   7  62 NE5       30.59R WCI  11
$$

TNZ008-025-027-028-033-062-065-066-061500-
NORTH MIDDLE TENNESSEE

CITY           SKY/WX    TMP DP  RH WIND       PRES   REMARKS
NASHVILLE      SUNNY     17   9  70 CALM      30.60R
CLARKSVILLE    PTSUNNY    5   5 100 CALM      30.59R
SMYRNA         SUNNY     16  10  77 N6        30.61R WCI   8
COOKEVILLE     SUNNY     18  12  79 CALM      30.51R
CROSSVILLE     SUNNY     17  10  74 NE3       30.44R
$$

TNZ061-075-076-078-094-096-097-061500-
SOUTH MIDDLE TENNESSEE

CITY           SKY/WX    TMP DP  RH WIND       PRES   REMARKS
FAYETTEVILLE   SUNNY     16  10  79 NE6         N/A  WCI   7
TULLAHOMA      SUNNY     16  12  86 N5          N/A  WCI   9
WINCHESTER     SUNNY     18  14  86 NE5       30.52R WCI  11
MCMINNVILLE    SUNNY     18  14  86 N6        30.51S WCI   9
COLUMBIA         N/A     14  12  92 NW3       30.56R
SHELBYVILLE    SUNNY     18  12  79 N6        30.56R WCI   9
$$

TNZ017-018-042-046-047-061500-
NORTHEAST TENNESSEE

CITY           SKY/WX    TMP DP  RH WIND       PRES   REMARKS
TRI CITIES     SUNNY     19  12  74 CALM      30.46S
ELIZABETHTON   SUNNY     19  12  73 CALM      30.43F
$$

TNZ012-013-036-069-073-074-061500-
CENTRAL EAST TENNESSEE

CITY           SKY/WX    TMP DP  RH WIND       PRES   REMARKS
KNOXVILLE      MOSUNNY   22  16  78 NE10      30.48R WCI  11
OAK RIDGE      SUNNY     23  14  68 VRB3      30.52R
GATLINBURG     CLOUDY    21  16  79 NE8       30.48R WCI  12
MORRISTOWN     SUNNY     19  12  73 E9        30.46S WCI   9
$$

TNZ083-085-099-061500-
SOUTHEAST TENNESSEE

CITY           SKY/WX    TMP DP  RH WIND       PRES   REMARKS
CHATTANOOGA    MOSUNNY   25  15  66 NE10G21   30.51R WCI  15
$$

SKY/WX REPORTED AS FAIR MEANS FEW OR NO CLOUDS BELOW
12 THOUSAND FEET.



USA.gov is the U.S. government's official web portal to all federal, state and local government web resources and services.